Preview of NWS' New Version of Forecast
This preview is not operational and should not be used for support decisions.

Regional Weather Roundup (RWR)

Issued by National Weather Service (NWS)

                            
000
ASUS44 KJAN 182110
RWRMS 

MISSISSIPPI HOURLY WEATHER ROUNDUP
NATIONAL WEATHER SERVICE JACKSON MS
400 PM CDT TUE JUN 18 2019

NOTE: "FAIR: INDICATES FEW OR NO CLOUDS BELOW 12,000 FEET WITH NO
SIGNIFICANT WEATHER AND/OR OBSTRUCTIONS TO VISIBILITY.

MSZ001>002-007>008-010>013-018>021-025>028-034>036-182200-
NORTHWEST MISSISSIPPI
  
CITY           SKY/WX    TMP DP  RH WIND       PRES   REMARKS
BATESVILLE     FAIR      82  72  69 CALM      29.86F                  
CLARKSDALE     SUNNY     93  68  43 W6G14     29.84F HX  97           
CLEVELAND      FAIR      87  70  57 CALM      29.85F HX  91           
GREENWOOD      FAIR      87  69  54 VRB5      29.86F HX  91           
GREENVILLE     FAIR      85  71  63 S8        29.85F HX  90           
OLIVE BRANCH   PTSUNNY   84  72  65 S6        29.85F                  
OXFORD         FAIR      81  70  69 VRB3      29.88F                  
TUNICA           N/A     84  68  58 CALM      29.85F                  
WINONA         FAIR      84  73  67 W7        29.86F HX  90           
$$

MSZ003>006-009-014>017-022>024-029>033-037>039-182200-
NORTHEAST MISSISSIPPI
  
CITY           SKY/WX    TMP DP  RH WIND       PRES   REMARKS
ABERDEEN       CLOUDY    79  79 100 VRB3      29.87F                  
COLUMBUS AFB   FAIR      83  73  72 NW7       29.86F                  
CORINTH        MOCLDY    79  70  73 CALM      29.87S                  
GOLDN TRIANGLE PTSUNNY   82  74  76 SW6       29.87F                  
STARKVILLE     FAIR      86  72  62 W5        29.87F HX  92           
TUPELO         LGT RAIN  77  69  76 W6        29.86F                  
$$

MSZ040-058-182200-
CENTRAL MISSISSIPPI
  
CITY           SKY/WX    TMP DP  RH WIND       PRES   REMARKS
JACKSON INTL   PTSUNNY   89  69  51 W8        29.87F HX  93           
JACKSON HAWKNS FAIR      87  71  58 SW8       29.87F HX  93           
MADISON        FAIR      86  70  58 SW6       29.87F HX  90           
MERIDIAN KEY   FAIR      88  72  58 SW5       29.87F HX  94           
MERIDIAN NAS   PTSUNNY   87  72  60 W9        29.87F HX  93           
RAYMOND          N/A     88  73  62 W6        29.86F HX  96           
VICKSBURG VKS  CLEAR     88  72  58 VRB7      29.86F HX  94           
$$

MSZ059>079-182200-
SOUTH MISSISSIPPI
  
CITY           SKY/WX    TMP DP  RH WIND       PRES   REMARKS
BROOKHAVEN     FAIR      86  72  62 E7        29.90F HX  92           
HATTIESBURG    FAIR      87  72  60 S7        29.89S HX  93           
LAUREL         CLEAR     88  73  61 W8        29.88S HX  95           
MCCOMB         FAIR      90  71  53 W9        29.88F HX  96           
NATCHEZ        FAIR      88  71  57 CALM      29.88F HX  94           
PINE BELT      FAIR      88  74  63 VRB3      29.89F HX  96           
$$

MSZ080>082-182200-
COASTAL MISSISSIPPI
  
CITY           SKY/WX    TMP DP  RH WIND       PRES   REMARKS
BAY ST LOUIS   MOSUNNY   79  73  83 SW9G16    29.91S                  
BILOXI         LGT RAIN  79  73  83 W9G24     29.90F                  
PASCAGOULA     LGT RAIN  79  75  87 CALM      29.92S                  
GULFPORT       FAIR      82  73  74 S7G17     29.89S                  
$$

LAZ007>009-015>016-023>026-182200-
NORTHEAST LOUISIANA
  
CITY           SKY/WX    TMP DP  RH WIND       PRES   REMARKS
BASTROP        FAIR      89  68  48 NW5       29.87S HX  93           
TALLULAH/VBURG FAIR      87  75  67 VRB5      29.86F HX  96           
VIDALIA        MOCLDY    88  71  57 SE5       29.86F HX  94           
$$